Powrót do katalogu

ARIANE 40+ R/B

AktywnySSO
NORAD 23561·ROCKET BODY·🇫🇷 France

Wystrzelony Apr 21, 1995 z Guiana Space Centre

Loading…

Następne Przeloty (najbliższe 24 godziny)

TLE

ŚwieżeSource: Space-Track

Epoka: Sep 14, 2026, 11:31 UTC

1 23561U 95021B   26257.48037640  .00000167  00000-0  66862-4 0  9994
2 23561  98.4334 326.2318 0005617 300.6531  69.9483 14.39872470646417

Śledź ARIANE 40+ R/B w czasie rzeczywistym z AllMySat

Download on the App Store